sat.trackr.live / text

‹ back to catalog

QIANFAN-235

NORAD 69864 · 2026-155S

PAYLOAD ACTIVE UNKNOWN

§ Identity

Operator
Country
PRC
Launch date
2026-07-05
Launch site
WSC
Launch vehicle
Mass (kg)
RCS (m²)

External: N2YO · Heavens-Above · Gunter

§ Orbital elements

Epoch: 2026-09-19T20:05:00.701952Z

Period
104.03 min
Inclination
89.0086°
Eccentricity
0.0029458
Mean motion
13.84271764 rev/d
Perigee alt
927.2 km
Apogee alt
970.4 km
Semi-major
7,326.9 km
B*
-1.7940e+0
RAAN
53.5091°
Arg perigee
21.8127°
Mean anomaly
338.4290°
Rev number
1,079

§ Raw data

QIANFAN-2351 69864U 26155S   26262.83681368 -.01861903  00000+0 -17940+1 0  99932 69864  89.0086  53.5091 0029458  21.8127 338.4290 13.84271764 10797

JSON: /api/v1/satellites/69864 · /tle

For live sub-satellite position, see the globe view (requires WebGL).

§ Visibility from observer

Set your observer location to see the next 7 days of passes ≥ 10°. The values pass through the URL so the page stays shareable.

No JS? Fill the form by hand. The geolocation button needs JavaScript.